User: anonymous   Login
Location: Unspecified
(0.0000°N, 0.0000°E)
Time: 01:59:56
(UTC+00:00)
Language:

STARLINK-3051 - Orbit

View from above orbital plane
View from above orbital plane
View from above satellite
View from above satellite

Ground track
Ground track

The orbit is defined by the following mean orbital elements,

1 49157U          26145.50946947 +.00000000 +00000-0 +33677-3 0 00000
2 49157  69.9979  76.0561 0003558 196.5836 163.5211 15.05352689    04
Epoch (UTC): 25 May 2026 12:13:38
Eccentricity: 0.0003558
inclination: 69.9979°
perigee height: 548 km
apogee height: 553 km
right ascension of ascending node: 76.0561°
argument of perigee: 196.5836°
revolutions per day: 15.05352689
mean anomaly at epoch: 163.5211°

The dashed part of the orbit path shows where the satellite is in the earth's shadow,  

DLR